| time (UTC) | temp F | wind direction | speed MPH | gust MPH | rain 1hr in | rain 24hr in | rain mn in | humidity % | barometer mb |
| 20260505101511 | 69 | 79 | 3.0 | 10.0 | 0.00 | 0.00 | 0.00 | 86 | 1007.3 |
| 20260505100018 | 68 | 218 | 3.0 | 13.0 | 0.00 | 0.00 | 0.00 | 86 | 1007.5 |
| 20260505094529 | 68 | 108 | 3.0 | 17.0 | 0.00 | 0.00 | 0.00 | 86 | 1007.4 |
| 20260505093004 | 68 | 298 | 0.0 | 11.0 | 0.00 | 0.00 | 0.00 | 86 | 1007.4 |
| 20260505091510 | 68 | 142 | 7.0 | 13.0 | 0.00 | 0.00 | 0.00 | 86 | 1007.4 |
| 20260505090026 | 68 | 139 | 2.0 | 8.0 | 0.00 | 0.00 | 0.00 | 87 | 1007.6 |
| 20260505084523 | 68 | 179 | 1.0 | 10.0 | 0.00 | 0.00 | 0.00 | 87 | 1008.0 |
| 20260505083026 | 67 | 186 | 2.0 | 12.0 | 0.00 | 0.00 | 0.00 | 87 | 1008.0 |
| 20260505081506 | 67 | 70 | 2.0 | 8.0 | 0.00 | 0.00 | 0.00 | 87 | 1008.1 |
| 20260505080010 | 67 | 146 | 3.0 | 8.0 | 0.00 | 0.00 | 0.00 | 86 | 1008.2 |
| 20260505074516 | 67 | 269 | 0.0 | 9.0 | 0.00 | 0.00 | 0.00 | 86 | 1008.4 |
| 20260505073021 | 67 | 107 | 2.0 | 11.0 | 0.00 | 0.00 | 0.00 | 86 | 1008.6 |
| 20260505071529 | 68 | 113 | 1.0 | 6.0 | 0.00 | 0.00 | 0.00 | 85 | 1008.6 |
| 20260505070028 | 68 | 166 | 1.0 | 11.0 | 0.00 | 0.00 | 0.00 | 85 | 1008.8 |
| 20260505064512 | 68 | 121 | 1.0 | 9.0 | 0.00 | 0.00 | 0.00 | 84 | 1008.7 |
| 20260505063020 | 68 | 179 | 1.0 | 7.0 | 0.00 | 0.00 | 0.00 | 83 | 1009.0 |
| 20260505061521 | 68 | 263 | 1.0 | 13.0 | 0.00 | 0.00 | 0.00 | 83 | 1009.2 |
| 20260505060027 | 69 | 121 | 1.0 | 8.0 | 0.00 | 0.00 | 0.00 | 82 | 1009.2 |
| 20260505054526 | 69 | 134 | 3.0 | 10.0 | 0.00 | 0.00 | 0.00 | 81 | 1009.0 |
| 20260505053018 | 69 | 132 | 1.0 | 13.0 | 0.00 | 0.00 | 0.00 | 81 | 1009.5 |
| 20260505051524 | 70 | 130 | 2.0 | 8.0 | 0.00 | 0.00 | 0.00 | 80 | 1009.3 |
| 20260505041507 | 71 | 271 | 2.0 | 9.0 | 0.00 | 0.00 | 0.00 | 76 | 1009.4 |
| 20260505040009 | 71 | 111 | 3.0 | 11.0 | 0.00 | 0.00 | 0.00 | 75 | 1009.4 |
| 20260505034510 | 72 | 155 | 1.0 | 8.0 | 0.00 | 0.00 | 0.00 | 74 | 1009.7 |
| 20260505033011 | 72 | 257 | 3.0 | 8.0 | 0.00 | 0.00 | 0.00 | 73 | 1009.4 |
| 20260505031511 | 72 | 211 | 0.0 | 14.0 | 0.00 | 0.00 | 0.00 | 72 | 1009.3 |
| 20260505030010 | 72 | 167 | 2.0 | 12.0 | 0.00 | 0.00 | 0.00 | 71 | 1009.2 |
| 20260505024513 | 72 | 104 | 1.0 | 8.0 | 0.00 | 0.00 | 0.00 | 70 | 1009.3 |
| 20260505023009 | 72 | 134 | 1.0 | 7.0 | 0.00 | 0.00 | 0.00 | 69 | 1009.2 |
| 20260505021512 | 73 | 114 | 0.0 | 5.0 | 0.00 | 0.00 | 0.00 | 68 | 1009.4 |
| 20260505020018 | 73 | 202 | 1.0 | 6.0 | 0.00 | 0.00 | 0.00 | 67 | 1009.2 |
| 20260505014513 | 74 | 152 | 0.0 | 4.0 | 0.00 | 0.00 | 0.00 | 66 | 1009.2 |
| 20260505013018 | 74 | 240 | 0.0 | 7.0 | 0.00 | 0.00 | 0.00 | 64 | 1009.1 |
| 20260505011511 | 75 | 132 | 0.0 | 5.0 | 0.00 | 0.00 | 0.00 | 63 | 1008.9 |
| 20260505010014 | 76 | 216 | 0.0 | 10.0 | 0.00 | 0.00 | 0.00 | 62 | 1009.1 |
| 20260505004531 | 76 | 148 | 0.0 | 6.0 | 0.00 | 0.00 | 0.00 | 60 | 1008.9 |
| 20260505003016 | 77 | 178 | 1.0 | 7.0 | 0.00 | 0.00 | 0.00 | 59 | 1008.9 |
| 20260505001518 | 77 | 135 | 1.0 | 8.0 | 0.00 | 0.00 | 0.00 | 57 | 1008.9 |
| 20260505000023 | 78 | 22 | 3.0 | 10.0 | 0.00 | 0.00 | 0.00 | 56 | 1009.2 |
| 20260504234516 | 78 | 283 | 1.0 | 11.0 | 0.00 | 0.00 | 0.00 | 55 | 1009.5 |
| 20260504233017 | 79 | 102 | 4.0 | 12.0 | 0.00 | 0.00 | 0.00 | 54 | 1009.7 |
| 20260504231519 | 79 | 19 | 2.0 | 15.0 | 0.00 | 0.00 | 0.00 | 54 | 1009.6 |
| 20260504230024 | 79 | 203 | 2.0 | 16.0 | 0.00 | 0.00 | 0.00 | 54 | 1009.7 |
| 20260504224515 | 79 | 133 | 3.0 | 12.0 | 0.00 | 0.00 | 0.00 | 53 | 1009.9 |
| 20260504223018 | 79 | 157 | 1.0 | 14.0 | 0.00 | 0.00 | 0.00 | 52 | 1010.0 |
| 20260504221523 | 80 | 138 | 5.0 | 12.0 | 0.00 | 0.00 | 0.00 | 51 | 1010.1 |
| 20260504220024 | 81 | 160 | 4.0 | 14.0 | 0.00 | 0.00 | 0.00 | 49 | 1010.2 |
| 20260504214524 | 80 | 262 | 3.0 | 13.0 | 0.00 | 0.00 | 0.00 | 49 | 1010.7 |
| 20260504213040 | 80 | 189 | 4.0 | 12.0 | 0.00 | 0.00 | 0.00 | 49 | 1010.9 |
| 20260504211521 | 80 | 120 | 6.0 | 14.0 | 0.00 | 0.00 | 0.00 | 47 | 1011.2 |
| 20260504210027 | 79 | 138 | 4.0 | 14.0 | 0.00 | 0.00 | 0.00 | 48 | 1011.6 |
| 20260504204527 | 80 | 219 | 2.0 | 11.0 | 0.00 | 0.00 | 0.00 | 47 | 1012.0 |
| 20260504203024 | 80 | 140 | 5.0 | 15.0 | 0.00 | 0.00 | 0.00 | 47 | 1012.2 |
| 20260504201532 | 80 | 132 | 6.0 | 13.0 | 0.00 | 0.00 | 0.00 | 47 | 1012.3 |
| 20260504200022 | 79 | 144 | 5.0 | 13.0 | 0.00 | 0.00 | 0.00 | 47 | 1012.7 |
| 20260504194526 | 79 | 144 | 6.0 | 14.0 | 0.00 | 0.00 | 0.00 | 46 | 1012.8 |
| 20260504193011 | 79 | 158 | 4.0 | 15.0 | 0.00 | 0.00 | 0.00 | 48 | 1012.9 |
| 20260504191519 | 78 | 121 | 4.0 | 17.0 | 0.00 | 0.00 | 0.00 | 48 | 1013.2 |
| 20260504190003 | 78 | 130 | 4.0 | 11.0 | 0.00 | 0.00 | 0.00 | 49 | 1013.5 |
| 20260504184508 | 79 | 155 | 4.0 | 14.0 | 0.00 | 0.00 | 0.00 | 48 | 1013.6 |
| 20260504183007 | 78 | 255 | 2.0 | 11.0 | 0.00 | 0.00 | 0.00 | 50 | 1013.8 |
| 20260504181511 | 77 | 250 | 2.0 | 13.0 | 0.00 | 0.00 | 0.00 | 49 | 1014.0 |
| 20260504180018 | 77 | 244 | 1.0 | 13.0 | 0.00 | 0.00 | 0.00 | 50 | 1014.2 |
| 20260504174505 | 76 | 99 | 5.0 | 10.0 | 0.00 | 0.00 | 0.00 | 50 | 1014.3 |
| 20260504173013 | 76 | 319 | 4.0 | 10.0 | 0.00 | 0.00 | 0.00 | 50 | 1014.9 |
| 20260504171518 | 76 | 261 | 4.0 | 12.0 | 0.00 | 0.00 | 0.00 | 49 | 1015.0 |